Location: Moscow
(55.7500°N, 37.5830°E)
Time: 18:14:54
(UTC+03:00)

Transit 2A - Pass Details

Date: 03 December 2021
Orbit: 591 x 967 km, 66.7° (Epoch: 21 January)

Event Time Altitude Azimuth Distance (km) Brightness Sun altitude
Rises 05:44:39 0° 296° (WNW) 3,565 - -23.0°
Reaches altitude 10° 05:47:28 10° 307° (NW) 2,660 - -22.6°
Exits shadow 05:50:35 25° 331° (NNW) 1,853 7.6 -22.1°
Maximum altitude 05:53:01 32° 9° (N) 1,608 7.6 -21.8°
Drops below altitude 10° 05:58:40 10° 71° (ENE) 2,711 9.7 -21.0°
Sets 06:01:33 0° 81° (E) 3,644 10.8 -20.6°
